Home > Weather > Honolulu > Past weeks

Flag for U.S.A. Weather for the Past 2 Weeks in Honolulu, Hawaii, U.S.A.

Now
75 °F

Scattered clouds.


Feels Like: 78 °F
Forecast: 63 / 70 °F
Wind: 14 mph from North

Location: Honolulu International Airport

Current Time: Feb 7, 2016 at 12:51:00 PM

Latest Report: Feb 7, 2016 at 11:53 AM


Visibility: 10 mi

Pressure: 30.05 "Hg

Humidity: 43%

Dew point: 51 °F

Location of HonoluluLocation

Historic Weather in Honolulu — Graph

°F

Honolulu Temperature Yesterday

Maximum temperature yesterday: 78 °F (at 4:53 PM)
Minimum temperature yesterday: 70 °F (at 11:53 PM)
Average temperature yesterday: 74 °F

High & Low Weather Summary for the Past Weeks

 TemperatureHumidityPressure
High84 °F (Feb 3, 1:53 PM)94% (Feb 2, 4:07 AM)30.12 "Hg (Feb 2, 4:07 AM)
Low67 °F (Jan 30, 5:53 AM)45% (Feb 7, 9:53 AM)29.90 "Hg (Feb 6, 3:53 PM)
Average76 °F72%30.03 "Hg
* Reported Jan 23 10:53 AM — Feb 7 10:53 AM, Honolulu, Weather by CustomWeather, © 2016

Note: Actual official high and low records may vary slightly from our data, if they occured in-between our weather recording intervals... More about our weather records

Advertising

Honolulu Weather History for the Previous 24 Hours

 ConditionsComfort  
Time TempWeatherWind HumidityBarometerVisibility
10:53 AM
Sun, Feb 7
75 °FPassing clouds.9 mph45%30.07 "Hg10 mi
9:53 AM75 °FScattered clouds.17 mph45%30.07 "Hg10 mi
8:53 AM72 °FScattered clouds.15 mph52%30.07 "Hg8 mi
7:53 AM69 °FScattered clouds.13 mph59%30.04 "Hg10 mi
6:53 AM68 °FPassing clouds.9 mph63%30.02 "Hg10 mi
5:53 AM68 °FPassing clouds.12 mph65%30.01 "Hg10 mi
4:53 AM68 °FPassing clouds.14 mph73%29.98 "Hg10 mi
3:53 AM69 °FPassing clouds.10 mph70%29.97 "Hg10 mi
2:53 AM70 °FClear.15 mph68%29.96 "Hg10 mi
1:53 AM70 °FPassing clouds.10 mph71%29.97 "Hg10 mi
12:53 AM71 °FPassing clouds.12 mph71%29.99 "Hg10 mi
11:53 PM
Sat, Feb 6
70 °FPassing clouds.9 mph73%29.98 "Hg10 mi
10:53 PM72 °FPassing clouds.15 mph71%30.00 "Hg10 mi
9:53 PM73 °FPassing clouds.15 mph76%29.99 "Hg10 mi
8:53 PM74 °FPartly cloudy.15 mph79%29.97 "Hg10 mi
7:53 PM75 °FPartly cloudy.7 mph74%29.96 "Hg10 mi
6:53 PM76 °FPartly cloudy.6 mph72%29.94 "Hg10 mi
5:53 PM78 °FBroken clouds.15 mph66%29.93 "Hg10 mi
4:53 PM78 °FBroken clouds.17 mph71%29.91 "Hg10 mi
3:53 PM77 °FBroken clouds.9 mph77%29.90 "Hg10 mi
2:53 PM77 °FBroken clouds.9 mph69%29.91 "Hg10 mi
1:53 PM76 °FPartly sunny.7 mph74%29.93 "Hg10 mi
12:53 PM74 °FBroken clouds.6 mph79%29.96 "Hg10 mi
Weather by CustomWeather, © 2016

See weather overviewHow to use our weather pages